Shirley, NY
on Saturday, December 9, 2017

Saturday
       
Previous Day Next Day
Daily Summary
 ActualAverage (KISP)Record (KISP)
Temperature
Mean Temperature °F °C °F °C  
Max Temperature 37°F 3°C 44°F 6°C 66°F 18°C (1991)
Min Temperature 33°F 1°C 30°F -1°C 8°F -13°C (1968)
Degree Days
Heating Degree Days 30    
Moisture
Dew Point 31°F -1°C   
Average Humidity 91    
Maximum Humidity 100    
Minimum Humidity 55    
Precipitation
Precipitation 0.32 in / 8.13 cm in / cm in / cm ()
Wind
Wind Speed 5 mph / 8 km/h   
Max Wind Speed 10 mph / 16 km/h   
Max Gust Speed 17 mph / 27 km/h   
Visibility 4 miles / 6 kilometers   
Events Snow   
Averages and records for this station are not official NWS values.
Key: T is trace of precipitation, MM is missing value
Source: NWS Daily Summary
Seasonal Weather Averages
Time(EST)TemperatureDew PointHumidity Pressure Visibility Wind DirectionWind SpeedGust SpeedPrecipitationEvents Conditions
12:56 AM 36.0°F 2.2°C 21.0°F -6.1°C 55% 29.98 in / 1015.2 hPa 10.0 miles / 16.1 kilometers West 4.6 mph / 7.4 km/h - N/A   Overcast
1:56 AM 36.0°F 2.2°C 21.0°F -6.1°C 55% 29.98 in / 1015.0 hPa 10.0 miles / 16.1 kilometers Calm Calm - N/A   Overcast
2:56 AM 35.1°F 1.7°C 23.0°F -5.0°C 61% 29.96 in / 1014.4 hPa 10.0 miles / 16.1 kilometers Calm Calm - N/A   Overcast
3:56 AM 36.0°F 2.2°C 21.9°F -5.6°C 57% 29.96 in / 1014.5 hPa 10.0 miles / 16.1 kilometers Calm Calm - N/A   Overcast
4:56 AM 35.1°F 1.7°C 21.9°F -5.6°C 59% 29.98 in / 1015.0 hPa 10.0 miles / 16.1 kilometers WNW 4.6 mph / 7.4 km/h - N/A   Overcast
5:56 AM 35.1°F 1.7°C 24.1°F -4.4°C 64% 29.95 in / 1014.1 hPa 10.0 miles / 16.1 kilometers Calm Calm - N/A   Overcast
6:56 AM 35.1°F 1.7°C 23.0°F -5.0°C 61% 29.94 in / 1013.9 hPa 10.0 miles / 16.1 kilometers North 4.6 mph / 7.4 km/h - N/A   Overcast
7:56 AM 36.0°F 2.2°C 24.1°F -4.4°C 62% 29.95 in / 1014.0 hPa 10.0 miles / 16.1 kilometers North 6.9 mph / 11.1 km/h - N/A   Overcast
8:56 AM 37.0°F 2.8°C 25.0°F -3.9°C 62% 29.93 in / 1013.3 hPa 10.0 miles / 16.1 kilometers Variable 4.6 mph / 7.4 km/h - N/A   Overcast
9:52 AM 33.8°F 1.0°C 30.2°F -1.0°C 87% 29.92 in / 1013.1 hPa 2.5 miles / 4.0 kilometers North 3.5 mph / 5.6 km/h - 0.00 in / 0.0 cm Snow Light Snow
9:56 AM 34.0°F 1.1°C 30.0°F -1.1°C 85% 29.92 in / 1013.2 hPa 2.0 miles / 3.2 kilometers North 3.5 mph / 5.6 km/h - 0.00 in / 0.0 cm Snow Light Snow
10:05 AM 34.0°F 1.1°C 30.9°F -0.6°C 89% 29.93 in / 1013.4 hPa 1.2 miles / 2.0 kilometers North 4.6 mph / 7.4 km/h - 0.00 in / 0.0 cm Snow Light Snow
10:26 AM 33.1°F 0.6°C 32.0°F 0.0°C 96% 29.91 in / 1012.8 hPa 0.8 miles / 1.2 kilometers Calm Calm - 0.01 in / 0.3 cm Snow Light Snow
10:43 AM 33.1°F 0.6°C 33.1°F 0.6°C 100% 29.92 in / 1013.1 hPa 1.0 miles / 1.6 kilometers Calm Calm - 0.02 in / 0.5 cm Snow Light Snow
10:53 AM 33.8°F 1.0°C 33.8°F 1.0°C 100% 29.91 in / 1012.8 hPa 0.8 miles / 1.2 kilometers North 3.5 mph / 5.6 km/h - 0.03 in / 0.8 cm Snow Light Snow
10:56 AM 33.1°F 0.6°C 33.1°F 0.6°C 100% 29.91 in / 1012.9 hPa 1.0 miles / 1.6 kilometers NNW 4.6 mph / 7.4 km/h - 0.03 in / 0.8 cm Snow Light Snow
11:05 AM 33.1°F 0.6°C 33.1°F 0.6°C 100% 29.90 in / 1012.4 hPa 1.2 miles / 2.0 kilometers North 3.5 mph / 5.6 km/h - 0.00 in / 0.0 cm Snow Light Snow
11:56 AM 33.1°F 0.6°C 33.1°F 0.6°C 100% 29.88 in / 1011.6 hPa 1.0 miles / 1.6 kilometers North 5.8 mph / 9.3 km/h - 0.02 in / 0.5 cm Snow Light Snow
12:11 PM 33.1°F 0.6°C 33.1°F 0.6°C 100% 29.86 in / 1011.1 hPa 0.8 miles / 1.2 kilometers North 5.8 mph / 9.3 km/h - 0.01 in / 0.3 cm Snow Light Snow
12:37 PM 33.1°F 0.6°C 32.0°F 0.0°C 96% 29.83 in / 1010.0 hPa 1.0 miles / 1.6 kilometers NNE 6.9 mph / 11.1 km/h - 0.04 in / 1.0 cm Snow Light Snow
12:45 PM 33.1°F 0.6°C 33.1°F 0.6°C 100% 29.82 in / 1009.7 hPa 0.8 miles / 1.2 kilometers North 5.8 mph / 9.3 km/h - 0.04 in / 1.0 cm Snow Light Snow
12:52 PM 33.8°F 1.0°C 33.8°F 1.0°C 100% 29.82 in / 1009.7 hPa 0.8 miles / 1.2 kilometers North 8.1 mph / 13.0 km/h - 0.05 in / 1.3 cm Snow Light Snow
12:56 PM 33.1°F 0.6°C 32.0°F 0.0°C 96% 29.82 in / 1009.7 hPa 0.8 miles / 1.2 kilometers North 8.1 mph / 13.0 km/h - 0.05 in / 1.3 cm Snow Light Snow
1:09 PM 33.1°F 0.6°C 33.1°F 0.6°C 100% 29.81 in / 1009.4 hPa 1.2 miles / 2.0 kilometers North 8.1 mph / 13.0 km/h - 0.01 in / 0.3 cm Snow Light Snow
1:56 PM 33.1°F 0.6°C 33.1°F 0.6°C 100% 29.78 in / 1008.2 hPa 2.0 miles / 3.2 kilometers North 10.4 mph / 16.7 km/h 17.3 mph / 27.8 km/h 0.04 in / 1.0 cm Snow Light Snow
2:04 PM 33.1°F 0.6°C 33.1°F 0.6°C 100% 29.76 in / 1007.7 hPa 1.8 miles / 2.8 kilometers North 9.2 mph / 14.8 km/h - 0.00 in / 0.0 cm Snow Light Snow
2:20 PM 33.1°F 0.6°C 33.1°F 0.6°C 100% 29.76 in / 1007.7 hPa 2.0 miles / 3.2 kilometers North 8.1 mph / 13.0 km/h - 0.00 in / 0.0 cm Snow Light Snow
2:30 PM 33.1°F 0.6°C 33.1°F 0.6°C 100% 29.76 in / 1007.7 hPa 1.2 miles / 2.0 kilometers North 8.1 mph / 13.0 km/h - 0.01 in / 0.3 cm Snow Light Snow
2:46 PM 33.1°F 0.6°C 33.1°F 0.6°C 100% 29.75 in / 1007.3 hPa 3.0 miles / 4.8 kilometers Variable 6.9 mph / 11.1 km/h - 0.02 in / 0.5 cm Snow Light Snow
2:56 PM 33.1°F 0.6°C 33.1°F 0.6°C 100% 29.75 in / 1007.4 hPa 2.0 miles / 3.2 kilometers North 6.9 mph / 11.1 km/h - 0.03 in / 0.8 cm Snow Light Snow
3:03 PM 33.1°F 0.6°C 33.1°F 0.6°C 100% 29.75 in / 1007.3 hPa 1.0 miles / 1.6 kilometers North 5.8 mph / 9.3 km/h - 0.01 in / 0.3 cm Snow Light Snow
3:23 PM 33.1°F 0.6°C 33.1°F 0.6°C 100% 29.74 in / 1007.0 hPa 3.0 miles / 4.8 kilometers North 6.9 mph / 11.1 km/h - 0.02 in / 0.5 cm Snow Light Snow
3:56 PM 33.1°F 0.6°C 33.1°F 0.6°C 100% 29.73 in / 1006.7 hPa 6.0 miles / 9.7 kilometers North 9.2 mph / 14.8 km/h - 0.02 in / 0.5 cm   Overcast
4:56 PM 34.0°F 1.1°C 33.1°F 0.6°C 96% 29.70 in / 1005.7 hPa 10.0 miles / 16.1 kilometers North 8.1 mph / 13.0 km/h 17.3 mph / 27.8 km/h 0.02 in / 0.5 cm   Overcast
5:56 PM 33.1°F 0.6°C 33.1°F 0.6°C 100% 29.69 in / 1005.3 hPa 5.0 miles / 8.0 kilometers North 8.1 mph / 13.0 km/h - 0.02 in / 0.5 cm Snow Light Snow
6:56 PM 33.1°F 0.6°C 33.1°F 0.6°C 100% 29.69 in / 1005.2 hPa 3.0 miles / 4.8 kilometers North 8.1 mph / 13.0 km/h - 0.02 in / 0.5 cm Snow Light Snow
7:56 PM 33.1°F 0.6°C 33.1°F 0.6°C 100% 29.70 in / 1005.5 hPa 4.0 miles / 6.4 kilometers North 6.9 mph / 11.1 km/h - 0.02 in / 0.5 cm Snow Light Snow
8:29 PM 33.1°F 0.6°C 33.1°F 0.6°C 100% 29.69 in / 1005.3 hPa 2.5 miles / 4.0 kilometers North 8.1 mph / 13.0 km/h - 0.01 in / 0.3 cm Snow Light Snow
8:56 PM 33.1°F 0.6°C 33.1°F 0.6°C 100% 29.68 in / 1005.0 hPa 2.5 miles / 4.0 kilometers North 8.1 mph / 13.0 km/h - 0.01 in / 0.3 cm Snow Light Snow
9:08 PM 33.1°F 0.6°C 33.1°F 0.6°C 100% 29.68 in / 1005.0 hPa 4.0 miles / 6.4 kilometers NNW 6.9 mph / 11.1 km/h - 0.00 in / 0.0 cm Snow Light Snow
9:54 PM 33.8°F 1.0°C 33.8°F 1.0°C 100% 29.68 in / 1005.0 hPa 2.5 miles / 4.0 kilometers NNW 8.1 mph / 13.0 km/h - 0.01 in / 0.3 cm Snow Light Snow
9:56 PM 33.1°F 0.6°C 33.1°F 0.6°C 100% 29.69 in / 1005.2 hPa 2.5 miles / 4.0 kilometers NNW 5.8 mph / 9.3 km/h - 0.01 in / 0.3 cm Snow Light Snow
10:06 PM 33.1°F 0.6°C 33.1°F 0.6°C 100% 29.69 in / 1005.3 hPa 1.8 miles / 2.8 kilometers NNW 5.8 mph / 9.3 km/h - 0.01 in / 0.3 cm Snow Light Snow
10:13 PM 33.1°F 0.6°C 33.1°F 0.6°C 100% 29.70 in / 1005.6 hPa 2.5 miles / 4.0 kilometers NNW 5.8 mph / 9.3 km/h - 0.01 in / 0.3 cm Snow Light Snow
10:27 PM 33.1°F 0.6°C 33.1°F 0.6°C 100% 29.69 in / 1005.3 hPa 4.0 miles / 6.4 kilometers NNW 8.1 mph / 13.0 km/h - 0.01 in / 0.3 cm Snow Light Snow
10:56 PM 33.1°F 0.6°C 33.1°F 0.6°C 100% 29.69 in / 1005.4 hPa 2.5 miles / 4.0 kilometers NW 6.9 mph / 11.1 km/h - 0.02 in / 0.5 cm Snow Light Snow
11:15 PM 33.1°F 0.6°C 33.1°F 0.6°C 100% 29.69 in / 1005.3 hPa 4.0 miles / 6.4 kilometers NW 8.1 mph / 13.0 km/h - 0.00 in / 0.0 cm Snow Light Snow
11:56 PM 33.1°F 0.6°C 33.1°F 0.6°C 100% 29.70 in / 1005.6 hPa 3.0 miles / 4.8 kilometers NW 9.2 mph / 14.8 km/h - 0.01 in / 0.3 cm Snow Light Snow